Time,TemperatureF,DewpointF,PressureIn,WindDirection,WindDirectionDegrees,WindSpeedMPH,WindSpeedGustMPH,Humidity,HourlyPrecipIn,Conditions,Clouds,dailyrainin,SoftwareType,DateUTC
2013-06-26 00:01:00,69.0,67.0,29.87,East,86,1.0,11.0,93,0.27,,,0.28,,2013-06-26 04:01:00,
2013-06-26 00:22:00,68.0,67.0,29.86,East,86,1.0,8.0,95,0.28,,,0.28,,2013-06-26 04:22:00,
2013-06-26 00:43:00,68.0,67.0,29.84,NE,44,1.0,7.0,95,0.28,,,0.28,,2013-06-26 04:43:00,
2013-06-26 00:53:00,68.0,67.0,29.84,NE,44,1.0,7.0,95,0.28,,,0.28,,2013-06-26 04:53:00,
2013-06-26 01:02:00,68.0,67.0,29.85,ENE,75,0.0,4.0,95,0.02,,,0.28,,2013-06-26 05:02:00,
2013-06-26 01:34:00,68.0,67.0,29.85,ENE,75,0.0,2.0,95,0.00,,,0.28,,2013-06-26 05:34:00,
2013-06-26 01:43:00,68.0,67.0,29.86,ENE,75,0.0,1.0,95,0.01,,,0.30,,2013-06-26 05:43:00,
2013-06-26 01:52:00,68.0,67.0,29.86,ENE,75,0.0,1.0,95,0.01,,,0.30,,2013-06-26 05:52:00,
2013-06-26 02:02:00,69.0,68.0,29.85,ENE,76,0.0,2.0,96,0.01,,,0.30,,2013-06-26 06:02:00,
2013-06-26 02:11:00,69.0,68.0,29.84,ENE,75,0.0,3.0,95,0.01,,,0.30,,2013-06-26 06:11:00,
2013-06-26 02:34:00,68.0,67.0,29.82,ENE,75,0.0,2.0,96,0.01,,,0.30,,2013-06-26 06:34:00,
2013-06-26 02:43:00,68.0,67.0,29.80,ENE,75,0.0,2.0,96,0.00,,,0.30,,2013-06-26 06:43:00,
2013-06-26 02:53:00,68.0,67.0,29.79,ESE,115,0.0,2.0,96,0.00,,,0.30,,2013-06-26 06:53:00,
2013-06-26 03:01:00,68.0,67.0,29.79,ESE,115,0.0,2.0,96,0.00,,,0.30,,2013-06-26 07:01:00,
2013-06-26 03:11:00,68.0,67.0,29.80,ESE,115,0.0,1.0,96,0.00,,,0.30,,2013-06-26 07:11:00,
2013-06-26 03:33:00,68.0,67.0,29.80,ESE,115,0.0,1.0,96,0.00,,,0.30,,2013-06-26 07:33:00,
2013-06-26 03:43:00,68.0,67.0,29.81,ESE,115,0.0,1.0,96,0.00,,,0.30,,2013-06-26 07:43:00,
2013-06-26 03:53:00,68.0,67.0,29.82,ESE,115,0.0,0.0,96,0.00,,,0.30,,2013-06-26 07:53:00,
2013-06-26 04:01:00,68.0,67.0,29.82,ESE,115,0.0,0.0,96,0.00,,,0.30,,2013-06-26 08:01:00,
2013-06-26 04:11:00,68.0,67.0,29.83,ESE,115,0.0,0.0,97,0.00,,,0.30,,2013-06-26 08:11:00,
2013-06-26 04:33:00,68.0,67.0,29.82,WSW,244,0.0,4.0,97,0.00,,,0.30,,2013-06-26 08:33:00,
2013-06-26 04:42:00,68.0,67.0,29.82,SSW,211,0.0,4.0,97,0.00,,,0.30,,2013-06-26 08:42:00,
2013-06-26 04:52:00,69.0,68.0,29.81,SW,229,0.0,4.0,97,0.00,,,0.30,,2013-06-26 08:52:00,
2013-06-26 05:01:00,69.0,68.0,29.81,SW,229,0.0,4.0,97,0.00,,,0.30,,2013-06-26 09:01:00,
2013-06-26 05:11:00,69.0,68.0,29.80,SW,221,2.0,5.0,97,0.00,,,0.30,,2013-06-26 09:11:00,
2013-06-26 05:22:00,69.0,68.0,29.80,SW,221,2.0,5.0,97,0.00,,,0.30,,2013-06-26 09:22:00,
2013-06-26 05:33:00,69.0,68.0,29.79,South,188,0.0,7.0,97,0.00,,,0.30,,2013-06-26 09:33:00,
2013-06-26 05:43:00,69.0,68.0,29.78,SSW,211,2.0,7.0,97,0.00,,,0.30,,2013-06-26 09:43:00,
2013-06-26 06:01:00,69.0,68.0,29.78,WSW,245,1.0,5.0,96,0.00,,,0.30,,2013-06-26 10:01:00,
2013-06-26 06:22:00,69.0,67.0,29.78,WSW,245,0.0,5.0,94,0.00,,,0.30,,2013-06-26 10:22:00,
2013-06-26 06:34:00,69.0,67.0,29.78,WNW,287,1.0,6.0,94,0.00,,,0.30,,2013-06-26 10:34:00,
2013-06-26 07:02:00,69.0,67.0,29.78,SSW,196,3.0,6.0,94,0.00,,,0.30,,2013-06-26 11:02:00,
2013-06-26 07:22:00,69.0,67.0,29.79,South,182,1.0,5.0,94,0.00,,,0.30,,2013-06-26 11:22:00,
2013-06-26 07:33:00,69.0,67.0,29.80,SW,220,3.0,8.0,94,0.00,,,0.30,,2013-06-26 11:33:00,
2013-06-26 07:44:00,69.0,67.0,29.81,WSW,246,2.0,9.0,94,0.00,,,0.30,,2013-06-26 11:44:00,
2013-06-26 07:52:00,69.0,67.0,29.81,WSW,246,2.0,9.0,94,0.00,,,0.30,,2013-06-26 11:52:00,
2013-06-26 08:02:00,69.0,67.0,29.81,WSW,252,2.0,8.0,94,0.00,,,0.30,,2013-06-26 12:02:00,
2013-06-26 08:22:00,70.0,68.0,29.80,West,267,3.0,8.0,93,0.00,,,0.30,,2013-06-26 12:22:00,
2013-06-26 08:33:00,70.0,68.0,29.80,SSW,213,3.0,9.0,92,0.00,,,0.30,,2013-06-26 12:33:00,
2013-06-26 08:43:00,70.0,68.0,29.80,WSW,256,2.0,9.0,92,0.00,,,0.30,,2013-06-26 12:43:00,
2013-06-26 08:52:00,70.0,68.0,29.80,WSW,256,2.0,9.0,92,0.00,,,0.30,,2013-06-26 12:52:00,
2013-06-26 09:34:00,73.0,69.0,29.83,SW,222,3.0,10.0,88,0.00,,,0.30,,2013-06-26 13:34:00,
2013-06-26 10:02:00,73.0,69.0,29.82,WSW,241,2.0,9.0,88,0.00,,,0.30,,2013-06-26 14:02:00,
2013-06-26 10:12:00,74.0,70.0,29.81,WNW,298,3.0,8.0,86,0.00,,,0.30,,2013-06-26 14:12:00,
2013-06-26 10:34:00,75.0,69.0,29.82,SW,223,3.0,8.0,83,0.00,,,0.30,,2013-06-26 14:34:00,
2013-06-26 10:42:00,75.0,69.0,29.82,WSW,254,2.0,9.0,82,0.00,,,0.30,,2013-06-26 14:42:00,
2013-06-26 10:53:00,75.0,69.0,29.82,WSW,254,2.0,9.0,82,0.00,,,0.30,,2013-06-26 14:53:00,
2013-06-26 11:02:00,76.0,69.0,29.82,WNW,293,5.0,9.0,80,0.00,,,0.30,,2013-06-26 15:02:00,
2013-06-26 11:12:00,74.0,68.0,29.83,WNW,283,5.0,10.0,82,0.00,,,0.30,,2013-06-26 15:12:00,
2013-06-26 11:34:00,73.0,68.0,29.85,WNW,285,9.0,15.0,84,0.00,,,0.30,,2013-06-26 15:34:00,
2013-06-26 11:44:00,71.0,68.0,29.86,WNW,285,9.0,14.0,89,0.00,,,0.30,,2013-06-26 15:44:00,
2013-06-26 11:53:00,71.0,68.0,29.86,WNW,285,9.0,14.0,89,0.00,,,0.30,,2013-06-26 15:53:00,
2013-06-26 12:22:00,68.0,66.0,29.84,WNW,296,4.0,10.0,94,0.07,,,0.37,,2013-06-26 16:22:00,
2013-06-26 12:34:00,68.0,67.0,29.80,WNW,284,0.0,3.0,95,0.09,,,0.39,,2013-06-26 16:34:00,
2013-06-26 12:52:00,68.0,67.0,29.80,SE,135,0.0,4.0,96,0.10,,,0.40,,2013-06-26 16:52:00,
2013-06-26 13:11:00,69.0,68.0,29.79,SSE,161,0.0,4.0,96,0.07,,,0.40,,2013-06-26 17:11:00,
2013-06-26 13:23:00,70.0,69.0,29.78,SSE,150,0.0,5.0,96,0.03,,,0.40,,2013-06-26 17:23:00,
2013-06-26 13:43:00,75.0,73.0,29.78,SSW,201,0.0,5.0,93,0.00,,,0.40,,2013-06-26 17:43:00,
2013-06-26 13:52:00,75.0,73.0,29.78,SSW,201,0.0,5.0,93,0.00,,,0.40,,2013-06-26 17:52:00,
2013-06-26 14:34:00,81.0,73.0,29.76,SSW,196,4.0,9.0,78,0.00,,,0.40,,2013-06-26 18:34:00,
2013-06-26 14:43:00,82.0,74.0,29.76,SW,217,3.0,8.0,77,0.00,,,0.40,,2013-06-26 18:43:00,
2013-06-26 14:52:00,82.0,74.0,29.76,SW,217,3.0,8.0,77,0.00,,,0.40,,2013-06-26 18:52:00,
2013-06-26 15:22:00,83.0,74.0,29.75,SSW,205,1.0,8.0,75,0.00,,,0.40,,2013-06-26 19:22:00,
2013-06-26 15:33:00,83.0,73.0,29.75,SSW,196,2.0,6.0,72,0.00,,,0.40,,2013-06-26 19:33:00,
2013-06-26 15:52:00,84.0,74.0,29.74,South,187,0.0,7.0,73,0.00,,,0.40,,2013-06-26 19:52:00,
2013-06-26 16:01:00,84.0,74.0,29.73,South,170,1.0,6.0,71,0.00,,,0.40,,2013-06-26 20:01:00,
2013-06-26 16:22:00,84.0,74.0,29.72,SSE,168,1.0,6.0,72,0.00,,,0.40,,2013-06-26 20:22:00,
2013-06-26 16:34:00,85.0,75.0,29.72,SE,134,1.0,6.0,71,0.00,,,0.40,,2013-06-26 20:34:00,
2013-06-26 16:43:00,85.0,75.0,29.72,SW,233,1.0,6.0,72,0.00,,,0.40,,2013-06-26 20:43:00,
2013-06-26 16:52:00,85.0,75.0,29.72,SW,233,1.0,6.0,72,0.00,,,0.40,,2013-06-26 20:52:00,
2013-06-26 17:23:00,86.0,75.0,29.70,SE,144,1.0,7.0,69,0.00,,,0.40,,2013-06-26 21:23:00,
2013-06-26 17:33:00,86.0,75.0,29.70,SSE,153,2.0,7.0,69,0.00,,,0.40,,2013-06-26 21:33:00,
2013-06-26 17:43:00,85.0,75.0,29.69,South,182,3.0,7.0,72,0.00,,,0.40,,2013-06-26 21:43:00,
2013-06-26 17:52:00,85.0,75.0,29.69,South,182,3.0,7.0,72,0.00,,,0.40,,2013-06-26 21:52:00,
2013-06-26 18:11:00,83.0,72.0,29.69,South,188,1.0,8.0,69,0.00,,,0.40,,2013-06-26 22:11:00,
2013-06-26 18:22:00,83.0,73.0,29.69,South,179,3.0,6.0,72,0.00,,,0.40,,2013-06-26 22:22:00,
2013-06-26 18:43:00,76.0,68.0,29.70,South,181,4.0,10.0,76,0.00,,,0.40,,2013-06-26 22:43:00,
2013-06-26 19:02:00,76.0,69.0,29.70,WSW,242,3.0,8.0,79,0.00,,,0.40,,2013-06-26 23:02:00,
2013-06-26 19:11:00,76.0,69.0,29.70,WSW,242,3.0,8.0,79,0.00,,,0.40,,2013-06-26 23:11:00,
2013-06-26 19:22:00,75.0,69.0,29.70,SW,229,2.0,9.0,82,0.00,,,0.40,,2013-06-26 23:22:00,
2013-06-26 19:34:00,75.0,68.0,29.70,WSW,240,1.0,6.0,80,0.00,,,0.40,,2013-06-26 23:34:00,
2013-06-26 19:43:00,75.0,69.0,29.70,SW,234,2.0,7.0,81,0.00,,,0.40,,2013-06-26 23:43:00,
2013-06-26 19:52:00,75.0,69.0,29.70,SW,234,2.0,7.0,81,0.00,,,0.40,,2013-06-26 23:52:00,
2013-06-26 20:01:00,75.0,69.0,29.71,WNW,296,2.0,6.0,81,0.00,,,0.40,,2013-06-27 00:01:00,
2013-06-26 20:12:00,75.0,69.0,29.71,WNW,296,0.0,3.0,83,0.00,,,0.40,,2013-06-27 00:12:00,
2013-06-26 20:22:00,75.0,69.0,29.71,WNW,296,0.0,3.0,83,0.00,,,0.40,,2013-06-27 00:22:00,
2013-06-26 20:33:00,74.0,69.0,29.71,WNW,296,0.0,1.0,84,0.00,,,0.40,,2013-06-27 00:33:00,
2013-06-26 20:43:00,74.0,69.0,29.71,WNW,296,0.0,1.0,84,0.00,,,0.40,,2013-06-27 00:43:00,
2013-06-26 20:53:00,74.0,68.0,29.71,WNW,296,0.0,1.0,83,0.00,,,0.40,,2013-06-27 00:53:00,
2013-06-26 21:01:00,74.0,68.0,29.71,WNW,296,0.0,1.0,83,0.00,,,0.40,,2013-06-27 01:01:00,
2013-06-26 21:11:00,74.0,68.0,29.71,WNW,296,0.0,1.0,83,0.00,,,0.40,,2013-06-27 01:11:00,
2013-06-26 21:22:00,75.0,69.0,29.71,WNW,296,0.0,1.0,83,0.00,,,0.40,,2013-06-27 01:22:00,
2013-06-26 21:32:00,75.0,69.0,29.71,WNW,296,0.0,1.0,83,0.00,,,0.40,,2013-06-27 01:32:00,
2013-06-26 21:43:00,75.0,69.0,29.71,WNW,296,0.0,1.0,83,0.00,,,0.40,,2013-06-27 01:43:00,
2013-06-26 21:53:00,74.0,70.0,29.70,East,101,0.0,3.0,86,0.00,,,0.40,,2013-06-27 01:53:00,
2013-06-26 22:01:00,74.0,70.0,29.70,East,101,0.0,3.0,86,0.00,,,0.40,,2013-06-27 02:01:00,
2013-06-26 22:11:00,74.0,70.0,29.70,East,101,0.0,3.0,86,0.00,,,0.40,,2013-06-27 02:11:00,
2013-06-26 22:32:00,74.0,70.0,29.70,ENE,69,0.0,4.0,87,0.00,,,0.40,,2013-06-27 02:32:00,
2013-06-26 22:42:00,74.0,70.0,29.70,ENE,69,0.0,4.0,87,0.00,,,0.40,,2013-06-27 02:42:00,
2013-06-26 22:52:00,74.0,70.0,29.70,ENE,69,0.0,4.0,87,0.00,,,0.40,,2013-06-27 02:52:00,
2013-06-26 23:02:00,74.0,70.0,29.70,ENE,69,0.0,4.0,87,0.00,,,0.40,,2013-06-27 03:02:00,
2013-06-26 23:21:00,73.0,69.0,29.69,ESE,105,0.0,1.0,88,0.00,,,0.40,,2013-06-27 03:21:00,
2013-06-26 23:33:00,73.0,69.0,29.69,ESE,105,0.0,1.0,88,0.00,,,0.40,,2013-06-27 03:33:00,
2013-06-26 23:42:00,73.0,69.0,29.69,ESE,105,0.0,1.0,88,0.00,,,0.40,,2013-06-27 03:42:00,